Bangor, ME

4:10 PM EST on December 08, 2019 (GMT -0500)
Bangor International

Weather History for KBGR - October, 2019

Change the Weather History Date:

Friday, October 11, 2019

  Actual Average Record
Temperature  
Mean Temperature 54 °F 49 °F  
Max Temperature 64 °F 60 °F 80 °F (1930)
Min Temperature 44 °F 38 °F 22 °F (1952)
Degree Days  
Heating Degree Days 11 16  
Month to date heating degree days 156 157  
Since 1 July heating degree days 370 429  
Cooling Degree Days 0 0  
Month to date cooling degree days 0 0  
Year to date cooling degree days 336 317  
Growing Degree Days 4 (Base 50)    
Moisture  
Dew Point 41 °F    
Average Humidity 63    
Maximum Humidity 89    
Minimum Humidity 36    
Precipitation  
Precipitation T in 0.14 in 0.97 in (1950)
Month to date precipitation 1.48 1.52  
Year to date precipitation 40.50 31.60  
Snow  
Snow 0.00 in 0.00 in 0.00 in (2002)
Month to date snowfall 0.0 0.0  
Since 1 July snowfall 0.0 0.0  
Since 1 September snowfall 0.0 0.0  
Snow Depth 0.00 in    
Sea Level Pressure  
Sea Level Pressure 30.30 in    
Wind  
Wind Speed 10 mph (NNE)    
Max Wind Speed 21 mph    
Max Gust Speed 27 mph    
Visibility 10 miles    
Events Rain    
T = Trace of Precipitation, MM = Missing Value Source: NWS Daily Summary

Daily Weather History Graph

Daily Weather History Graph

Search for Another Location

Airport or City:

Astronomy

Oct. 11, 2019 Rise Set
Actual Time 6:45 AM EDT 5:58 PM EDT
Civil Twilight 6:16 AM EDT 6:27 PM EDT
Nautical Twilight 5:42 AM EDT 7:01 PM EDT
Astronomical Twilight 5:08 AM EDT 7:35 PM EDT
Moon 5:33 PM EDT (10/11) 4:13 AM EDT (10/11)
Length of Visible Light 12h 11m
Length of Day
11h 12m
Waxing Gibbous, 96% of the Moon is Illuminated
Oct 11
Waxing Gibbous
Oct 13
Full
Oct 21
Last Quarter
Oct 27
New
Nov 4
First Quarter

Hourly Weather History & Observations

Time (EDT) Temp. Windchill Dew Point Humidity Pressure Visibility Wind Dir Wind Speed Gust Speed Precip Events Conditions
12:53 AM 46.9 °F - 42.1 °F 83% 30.39 in 10.0 mi North 6.9 mph - N/A   Mostly Cloudy
1:53 AM 46.9 °F - 42.1 °F 83% 30.38 in 10.0 mi North 9.2 mph - N/A   Mostly Cloudy
2:53 AM 45.0 °F 41.2 °F 41.0 °F 86% 30.36 in 10.0 mi North 6.9 mph - N/A   Overcast
3:53 AM 45.0 °F 39.3 °F 41.0 °F 86% 30.37 in 10.0 mi NNE 11.5 mph - N/A   Mostly Cloudy
4:53 AM 45.0 °F 39.3 °F 41.0 °F 86% 30.37 in 10.0 mi North 11.5 mph - N/A   Mostly Cloudy
5:53 AM 44.1 °F 39.0 °F 39.9 °F 85% 30.37 in 10.0 mi North 9.2 mph - N/A   Mostly Cloudy
6:53 AM 44.1 °F 38.6 °F 39.9 °F 85% 30.37 in 10.0 mi North 10.4 mph - N/A   Mostly Cloudy
7:53 AM 45.0 °F 40.6 °F 39.9 °F 82% 30.37 in 10.0 mi North 8.1 mph - N/A   Overcast
8:53 AM 48.9 °F - 41.0 °F 74% 30.38 in 10.0 mi NNE 10.4 mph - N/A   Overcast
9:53 AM 51.1 °F - 41.0 °F 68% 30.36 in 10.0 mi NNE 13.8 mph - N/A   Overcast
10:53 AM 55.0 °F - 41.0 °F 59% 30.34 in 10.0 mi NNE 12.7 mph - N/A   Overcast
11:53 AM 57.9 °F - 39.0 °F 49% 30.32 in 10.0 mi NNE 18.4 mph 26.5 mph N/A   Mostly Cloudy
12:53 PM 62.1 °F - 41.0 °F 46% 30.30 in 10.0 mi NNE 16.1 mph - N/A   Overcast
1:53 PM 62.1 °F - 36.0 °F 38% 30.28 in 10.0 mi NE 13.8 mph - N/A   Overcast
2:53 PM 64.0 °F - 37.0 °F 37% 30.27 in 10.0 mi NE 15.0 mph - N/A   Overcast
3:53 PM 63.0 °F - 37.9 °F 40% 30.26 in 10.0 mi ENE 11.5 mph - N/A   Overcast
4:53 PM 61.0 °F - 37.0 °F 41% 30.25 in 10.0 mi ENE 15.0 mph 20.7 mph N/A   Overcast
5:53 PM 59.0 °F - 39.0 °F 48% 30.25 in 10.0 mi ENE 15.0 mph - N/A   Overcast
6:53 PM 57.0 °F - 41.0 °F 55% 30.26 in 10.0 mi NE 9.2 mph - N/A   Overcast
7:53 PM 55.9 °F - 42.1 °F 60% 30.23 in 10.0 mi NE 12.7 mph - N/A   Overcast
8:53 PM 55.9 °F - 43.0 °F 62% 30.23 in 10.0 mi NE 9.2 mph - N/A   Overcast
10:14 PM 55.0 °F - 44.1 °F 67% 30.21 in 10.0 mi ENE 8.1 mph 18.4 mph N/A   Overcast
10:53 PM 54.0 °F - 45.0 °F 72% 30.20 in 10.0 mi NE 10.4 mph - N/A   Overcast
11:53 PM 53.1 °F - 46.0 °F 77% 30.17 in 10.0 mi NE 11.5 mph - 0.00 in Rain Light Rain